Flag for South Africa Weather past 2 weeks in Port Elizabeth, South Africa

61 °F

Scattered clouds.

Feels Like: 61 °F
Forecast: 56 / 78 °F
Wind: 15 mph from East

Location: Port Elizabeth Airport

Current Time: Nov 28, 2015 at 6:25:10 AM

Latest Report: Nov 28, 2015 at 6:00 AM

Visibility: N/A

Pressure: 30.21 "Hg

Humidity: 72%

Dew point: 52 °F

Location of Port ElizabethLocation

Historic Weather in Port Elizabeth — Graph


Port Elizabeth temperature yesterday

Maximum temperature yesterday: 64 °F (at 3:01 PM)
Minimum temperature yesterday: 52 °F (at 1:00 AM)
Average temperature yesterday: 60 °F

Past Weeks' High & Low Weather Summary

High77 °F (Nov 24, 1:00 PM)94% (Nov 13, 5:00 AM)30.27 "Hg (Nov 13, 5:00 AM)
Low52 °F (Nov 16, 4:00 AM)43% (Nov 18, 3:00 PM)29.62 "Hg (Nov 19, 6:00 PM)
Average64 °F72%30.00 "Hg
* Reported Nov 13 5:00 AM — Nov 28 5:00 AM, Port Elizabeth, Weather by CustomWeather, © 2015

Note: Actual official high and low records may vary slightly from our data, if they occured in-between our weather recording intervals... More about our weather records


Port Elizabeth weather history for previous 24 hours

Time TempWeatherWind HumidityBarometerVisibility
5:00 AM
Sat, Nov 28
59 °FPassing clouds.9 mph77%30.21 "HgN/A
4:00 AM59 °FPassing clouds.12 mph77%30.21 "HgN/A
3:00 AM61 °FPassing clouds.15 mph72%30.21 "HgN/A
2:00 AM61 °FPassing clouds.13 mph72%30.21 "HgN/A
1:00 AM61 °FPassing clouds.14 mph72%30.24 "HgN/A
12:00 AM61 °FPassing clouds.12 mph72%30.27 "HgN/A
11:00 PM
Fri, Nov 27
61 °FPartly cloudy.12 mph77%30.27 "HgN/A
10:00 PM61 °FPassing clouds.9 mph77%30.27 "HgN/A
9:00 PM61 °FPassing clouds.13 mph72%30.27 "HgN/A
8:00 PM61 °FPassing clouds.12 mph83%30.27 "HgN/A
7:00 PM61 °FPassing clouds.10 mph88%30.24 "HgN/A
6:00 PM63 °FBroken clouds.9 mph77%30.24 "HgN/A
5:00 PM63 °FPartly sunny.7 mph77%30.21 "HgN/A
4:00 PM63 °FPartly sunny.7 mph73%30.21 "HgN/A
3:01 PM64 °FPartly sunny.9 mph73%30.24 "HgN/A
2:00 PM59 °FRain showers. Broken clouds.6 mph94%30.24 "Hg2 mi
1:00 PM61 °FLight rain. Broken clouds.7 mph94%30.24 "Hg3 mi
12:55 PM61 °FLight rain. Broken clouds.7 mph94%30.24 "Hg3 mi
12:01 PM59 °FLight rain. Fog.8 mph94%30.27 "Hg2 mi
11:00 AM63 °FBroken clouds.12 mph68%30.27 "HgN/A
10:00 AM63 °FPartly sunny.14 mph73%30.27 "HgN/A
9:00 AM63 °FPartly sunny.15 mph64%30.24 "HgN/A
8:00 AM63 °FPassing clouds.14 mph64%30.24 "HgN/A
7:00 AM61 °FPassing clouds.10 mph72%30.21 "HgN/A
6:00 AM54 °FPassing clouds.6 mph77%30.21 "HgN/A
Weather by CustomWeather, © 2015

See weather overviewHow to use our weather pages